sat.trackr.live / text

‹ back to catalog

STARLINK-2536

NORAD 48310 · 2021-036AL

PAYLOAD ACTIVE UNKNOWN

§ Identity

Operator
Country
US
Launch date
2021-04-29
Launch site
AFETR
Launch vehicle
Mass (kg)
RCS (m²)

Purposes: comms

External: N2YO · Heavens-Above · Gunter

§ Orbital elements

Epoch: 2026-05-25T02:39:14.246784Z

Period
94.01 min
Inclination
53.1619°
Eccentricity
0.0001674
Mean motion
15.31701935 rev/d
Perigee alt
469.6 km
Apogee alt
471.9 km
Semi-major
6,848.9 km
B*
6.9117e-6
RAAN
95.9900°
Arg perigee
88.6235°
Mean anomaly
271.4959°
Rev number
27,988

§ Raw data

STARLINK-25361 48310U 21036AL  26145.11058156 -.00000151  00000+0  69117-5 0  99992 48310  53.1619  95.9900 0001674  88.6235 271.4959 15.31701935279881

JSON: /api/v1/satellites/48310 · /tle

For live sub-satellite position, see the globe view (requires WebGL).

§ Visibility from observer

Set your observer location to see the next 7 days of passes ≥ 10°. The values pass through the URL so the page stays shareable.

No JS? Fill the form by hand. The geolocation button needs JavaScript.